SCX9030 KMSP-KLAL

Flight info

Callsign SCX9030
Flight time 2h 36m
Altitude 41000
Route RST1 ALO STL VISQA J151 VUZ J41 MGM JEDOP ACORI MAATY5
Aircraft B738/M-SDE2E3FGHIRWXY/LB1

Departure

Time 2026-04-20 00:34
Airport Minneapolis–Saint Paul International Airport / Wold–Chamberlain Field (KMSP)

Arrival

Time 2026-04-20 03:11
Airport Lakeland Linder International Airport (KLAL)
Time Latitude Longitude Altitude Speed Heading
2026-04-20 00:04 44.87736 -93.24374 824 ft 0 kts 183°
2026-04-20 00:14 44.87754 -93.24373 822 ft 4 kts 177°
2026-04-20 00:15 44.87780 -93.24379 822 ft 4 kts 159°
2026-04-20 00:15 44.87801 -93.24398 820 ft 4 kts 114°
2026-04-20 00:15 44.87803 -93.24417 821 ft 1 kts 79°
2026-04-20 00:15 44.87802 -93.24420 819 ft 0 kts 79°
2026-04-20 00:18 44.87803 -93.24413 821 ft 3 kts 79°
2026-04-20 00:18 44.87812 -93.24352 824 ft 9 kts 81°
2026-04-20 00:19 44.87824 -93.24261 824 ft 10 kts 81°
2026-04-20 00:19 44.87823 -93.24162 824 ft 12 kts 123°
2026-04-20 00:19 44.87721 -93.24116 824 ft 19 kts 169°
2026-04-20 00:19 44.87593 -93.24065 823 ft 18 kts 131°
2026-04-20 00:20 44.87605 -93.23903 823 ft 18 kts 80°
2026-04-20 00:20 44.87606 -93.23713 824 ft 21 kts 112°
2026-04-20 00:20 44.87553 -93.23528 825 ft 20 kts 111°
2026-04-20 00:20 44.87497 -93.23353 826 ft 19 kts 132°
2026-04-20 00:21 44.87493 -93.23209 822 ft 17 kts 43°
2026-04-20 00:21 44.87590 -93.23072 822 ft 22 kts 46°
2026-04-20 00:21 44.87701 -93.22916 824 ft 22 kts 45°
2026-04-20 00:21 44.87808 -93.22765 822 ft 21 kts 44°
2026-04-20 00:22 44.87911 -93.22621 823 ft 21 kts 45°
2026-04-20 00:22 44.88010 -93.22480 823 ft 20 kts 44°
2026-04-20 00:22 44.88088 -93.22367 825 ft 11 kts 46°
2026-04-20 00:22 44.88108 -93.22339 821 ft 1 kts 44°
2026-04-20 00:29 44.88113 -93.22332 825 ft 3 kts 45°
2026-04-20 00:29 44.88120 -93.22322 820 ft 5 kts 46°
2026-04-20 00:30 44.88141 -93.22245 825 ft 13 kts 103°
2026-04-20 00:30 44.88078 -93.22096 824 ft 22 kts 121°
2026-04-20 00:30 44.87994 -93.21901 823 ft 23 kts 121°
2026-04-20 00:30 44.87912 -93.21711 821 ft 22 kts 121°
2026-04-20 00:31 44.87832 -93.21527 824 ft 22 kts 122°
2026-04-20 00:31 44.87754 -93.21347 824 ft 21 kts 121°
2026-04-20 00:31 44.87679 -93.21173 823 ft 20 kts 121°
2026-04-20 00:31 44.87606 -93.21006 824 ft 20 kts 122°
2026-04-20 00:32 44.87534 -93.20840 824 ft 19 kts 121°
2026-04-20 00:32 44.87457 -93.20700 824 ft 18 kts 146°
2026-04-20 00:32 44.87342 -93.20546 823 ft 26 kts 122°
2026-04-20 00:32 44.87265 -93.20366 821 ft 16 kts 122°
2026-04-20 00:33 44.87251 -93.20234 825 ft 14 kts 52°
2026-04-20 00:33 44.87324 -93.20159 826 ft 12 kts 31°
2026-04-20 00:33 44.87363 -93.20143 826 ft 2 kts 330°
2026-04-20 00:33 44.87366 -93.20151 826 ft 0 kts 302°
2026-04-20 00:34 44.87367 -93.20154 826 ft 2 kts 302°
2026-04-20 00:34 44.87488 -93.20433 821 ft 76 kts 302°
2026-04-20 00:34 44.87901 -93.21386 830 ft 147 kts 303°
2026-04-20 00:34 44.88445 -93.22679 1586 ft 153 kts 303°
2026-04-20 00:35 44.89016 -93.24035 2380 ft 168 kts 303°
2026-04-20 00:35 44.89347 -93.25650 3169 ft 185 kts 274°
2026-04-20 00:35 44.89282 -93.27525 3751 ft 203 kts 270°
2026-04-20 00:35 44.89223 -93.29622 4105 ft 228 kts 271°
2026-04-20 00:36 44.89179 -93.32001 4601 ft 251 kts 268°
2026-04-20 00:36 44.88557 -93.34337 5531 ft 264 kts 234°
2026-04-20 00:36 44.87049 -93.35826 6560 ft 273 kts 200°
2026-04-20 00:36 44.85141 -93.36025 7516 ft 282 kts 173°
2026-04-20 00:37 44.83267 -93.35112 8394 ft 292 kts 153°
2026-04-20 00:37 44.81469 -93.33670 9254 ft 303 kts 149°
2026-04-20 00:37 44.79642 -93.32101 10165 ft 312 kts 148°
2026-04-20 00:37 44.77722 -93.30442 10629 ft 338 kts 149°
2026-04-20 00:38 44.75638 -93.28663 11154 ft 358 kts 149°
2026-04-20 00:38 44.73473 -93.26836 12009 ft 365 kts 149°
2026-04-20 00:38 44.71283 -93.25005 12999 ft 372 kts 150°
2026-04-20 00:38 44.69006 -93.23109 13719 ft 387 kts 150°
2026-04-20 00:39 44.66656 -93.21158 14561 ft 396 kts 150°
2026-04-20 00:39 44.64301 -93.19206 15469 ft 401 kts 150°
2026-04-20 00:39 44.61858 -93.17257 16415 ft 406 kts 153°
2026-04-20 00:39 44.59322 -93.15439 17341 ft 412 kts 156°
2026-04-20 00:40 44.56727 -93.13662 18245 ft 419 kts 156°
2026-04-20 00:40 44.54083 -93.11863 19064 ft 426 kts 156°
2026-04-20 00:40 44.51394 -93.10018 19805 ft 433 kts 156°
2026-04-20 00:40 44.48677 -93.08134 20568 ft 439 kts 156°
2026-04-20 00:41 44.45922 -93.06214 21335 ft 445 kts 155°
2026-04-20 00:41 44.43129 -93.04267 22092 ft 451 kts 155°
2026-04-20 00:41 44.40301 -93.02299 22831 ft 457 kts 155°
2026-04-20 00:41 44.37430 -93.00305 23550 ft 463 kts 155°
2026-04-20 00:42 44.34559 -92.98314 24196 ft 469 kts 155°
2026-04-20 00:42 44.31613 -92.96270 24827 ft 473 kts 155°
2026-04-20 00:42 44.28656 -92.94221 25471 ft 476 kts 155°
2026-04-20 00:42 44.25675 -92.92159 26113 ft 480 kts 155°
2026-04-20 00:43 44.22666 -92.90080 26707 ft 483 kts 155°
2026-04-20 00:43 44.19646 -92.87995 27282 ft 487 kts 155°
2026-04-20 00:43 44.16595 -92.85890 27844 ft 491 kts 155°
2026-04-20 00:43 44.13520 -92.83771 28400 ft 495 kts 155°
2026-04-20 00:44 44.10421 -92.81640 28953 ft 498 kts 155°
2026-04-20 00:44 44.07335 -92.79522 29478 ft 502 kts 155°
2026-04-20 00:44 44.04191 -92.77367 30002 ft 505 kts 155°
2026-04-20 00:44 44.01023 -92.75198 30464 ft 509 kts 155°
2026-04-20 00:45 43.97836 -92.73018 30863 ft 512 kts 155°
2026-04-20 00:45 43.94627 -92.70825 31284 ft 514 kts 156°
2026-04-20 00:45 43.91399 -92.68621 31692 ft 517 kts 156°
2026-04-20 00:45 43.88162 -92.66413 32071 ft 520 kts 156°
2026-04-20 00:46 43.84905 -92.64194 32443 ft 523 kts 156°
2026-04-20 00:46 43.81662 -92.61995 32783 ft 525 kts 158°
2026-04-20 00:46 43.78264 -92.60128 33112 ft 524 kts 166°
2026-04-20 00:46 43.74738 -92.58913 33477 ft 519 kts 176°
2026-04-20 00:47 43.71170 -92.58305 33994 ft 515 kts 179°
2026-04-20 00:47 43.67618 -92.57780 34511 ft 512 kts 180°
2026-04-20 00:47 43.64079 -92.57269 34913 ft 511 kts 180°
2026-04-20 00:47 43.60535 -92.56744 35257 ft 512 kts 180°
2026-04-20 00:48 43.56993 -92.56200 35605 ft 512 kts 179°
2026-04-20 00:48 43.53507 -92.55646 35994 ft 511 kts 179°
2026-04-20 00:48 43.49979 -92.55074 36391 ft 510 kts 179°
2026-04-20 00:48 43.46456 -92.54497 36769 ft 509 kts 179°
2026-04-20 00:49 43.42934 -92.53919 37117 ft 509 kts 179°
2026-04-20 00:49 43.39411 -92.53342 37480 ft 509 kts 179°
2026-04-20 00:49 43.35901 -92.52769 37869 ft 508 kts 179°
2026-04-20 00:49 43.32400 -92.52199 38245 ft 507 kts 179°
2026-04-20 00:50 43.28908 -92.51633 38597 ft 506 kts 179°
2026-04-20 00:50 43.25402 -92.51065 38953 ft 506 kts 179°
2026-04-20 00:50 43.21909 -92.50501 39219 ft 505 kts 179°
2026-04-20 00:50 43.18422 -92.49938 39493 ft 504 kts 179°
2026-04-20 00:51 43.14945 -92.49377 39763 ft 503 kts 179°
2026-04-20 00:51 43.11463 -92.48816 40022 ft 503 kts 179°
2026-04-20 00:51 43.07987 -92.48257 40278 ft 502 kts 179°
2026-04-20 00:51 43.04520 -92.47700 40531 ft 502 kts 179°
2026-04-20 00:52 43.01050 -92.47142 40777 ft 502 kts 179°
2026-04-20 00:52 42.97629 -92.46594 41016 ft 501 kts 179°
2026-04-20 00:52 42.94159 -92.46038 41258 ft 501 kts 179°
2026-04-20 00:53 42.87193 -92.44926 41288 ft 506 kts 179°
2026-04-20 00:53 42.80210 -92.43809 41282 ft 502 kts 179°
2026-04-20 00:54 42.73311 -92.42706 41277 ft 498 kts 179°
2026-04-20 00:54 42.66442 -92.41617 41273 ft 496 kts 179°
2026-04-20 00:55 42.59584 -92.40531 41275 ft 495 kts 179°
2026-04-20 00:55 42.52845 -92.38595 41266 ft 505 kts 163°
2026-04-20 00:56 42.46311 -92.34997 41272 ft 508 kts 161°
2026-04-20 00:56 42.39788 -92.31282 41281 ft 509 kts 161°
2026-04-20 00:57 42.33234 -92.27624 41294 ft 510 kts 162°
2026-04-20 00:57 42.26643 -92.24012 41286 ft 511 kts 162°
2026-04-20 00:58 42.20031 -92.20415 41286 ft 513 kts 162°
2026-04-20 00:58 42.13402 -92.16815 41285 ft 514 kts 162°
2026-04-20 00:59 42.06761 -92.13212 41286 ft 515 kts 162°
2026-04-20 00:59 42.00152 -92.09633 41289 ft 515 kts 162°
2026-04-20 01:00 41.93487 -92.06032 41281 ft 515 kts 162°
2026-04-20 01:00 41.86823 -92.02440 41282 ft 515 kts 162°
2026-04-20 01:01 41.80212 -91.98884 41278 ft 515 kts 163°
2026-04-20 01:01 41.73563 -91.95316 41282 ft 514 kts 163°
2026-04-20 01:02 41.66923 -91.91761 41287 ft 514 kts 163°
2026-04-20 01:02 41.60280 -91.88212 41290 ft 513 kts 163°
2026-04-20 01:03 41.53648 -91.84677 41293 ft 513 kts 163°
2026-04-20 01:03 41.47015 -91.81149 41277 ft 513 kts 163°
2026-04-20 01:04 41.40393 -91.77635 41263 ft 512 kts 163°
2026-04-20 01:04 41.33794 -91.74141 41256 ft 512 kts 163°
2026-04-20 01:05 41.27175 -91.70644 41259 ft 512 kts 163°
2026-04-20 01:05 41.20546 -91.67150 41265 ft 512 kts 163°
2026-04-20 01:06 41.13921 -91.63664 41269 ft 512 kts 163°
2026-04-20 01:06 41.07297 -91.60188 41275 ft 512 kts 163°
2026-04-20 01:07 41.00673 -91.56718 41275 ft 512 kts 163°
2026-04-20 01:07 40.95160 -91.53836 41279 ft 512 kts 163°
2026-04-20 01:08 40.88532 -91.50379 41270 ft 512 kts 163°
2026-04-20 01:08 40.81904 -91.46928 41273 ft 511 kts 163°
2026-04-20 01:09 40.75274 -91.43484 41259 ft 511 kts 163°
2026-04-20 01:09 40.68704 -91.40079 41252 ft 511 kts 164°
2026-04-20 01:10 40.62048 -91.36636 41252 ft 510 kts 164°
2026-04-20 01:10 40.52190 -91.31550 41254 ft 509 kts 164°
2026-04-20 01:11 40.45590 -91.28155 41254 ft 508 kts 164°
2026-04-20 01:11 40.39008 -91.24775 41253 ft 508 kts 164°
2026-04-20 01:12 40.32425 -91.21402 41255 ft 507 kts 164°
2026-04-20 01:12 40.25942 -91.18088 41254 ft 506 kts 164°
2026-04-20 01:13 40.19371 -91.14736 41248 ft 506 kts 165°
2026-04-20 01:13 40.12817 -91.11399 41254 ft 505 kts 165°
2026-04-20 01:14 40.06265 -91.08070 41249 ft 505 kts 165°
2026-04-20 01:14 39.99710 -91.04746 41245 ft 505 kts 165°
2026-04-20 01:15 39.93160 -91.01432 41245 ft 504 kts 165°
2026-04-20 01:15 39.86656 -90.98148 41244 ft 504 kts 165°
2026-04-20 01:16 39.83379 -90.96496 41112 ft 504 kts 165°
2026-04-20 01:16 39.80113 -90.94851 41098 ft 504 kts 165°
2026-04-20 01:16 39.73572 -90.91561 41081 ft 504 kts 165°
2026-04-20 01:17 39.70295 -90.89916 41247 ft 504 kts 165°
2026-04-20 01:17 39.67025 -90.88276 41246 ft 504 kts 165°
2026-04-20 01:17 39.60526 -90.85020 41246 ft 503 kts 165°
2026-04-20 01:18 39.53989 -90.81753 41244 ft 503 kts 165°
2026-04-20 01:18 39.47450 -90.78491 41243 ft 503 kts 166°
2026-04-20 01:19 39.40914 -90.75237 41239 ft 503 kts 166°
2026-04-20 01:19 39.34426 -90.72014 41233 ft 503 kts 166°
2026-04-20 01:20 39.27887 -90.68772 41234 ft 503 kts 166°
2026-04-20 01:20 39.21339 -90.65531 41226 ft 503 kts 166°
2026-04-20 01:21 39.14793 -90.62298 41219 ft 503 kts 166°
2026-04-20 01:21 39.08256 -90.59076 41215 ft 503 kts 166°
2026-04-20 01:22 39.01720 -90.55860 41211 ft 503 kts 166°
2026-04-20 01:22 38.95220 -90.52669 41212 ft 503 kts 166°
2026-04-20 01:23 38.88671 -90.49459 41209 ft 503 kts 166°
2026-04-20 01:23 38.82165 -90.46061 41218 ft 507 kts 163°
2026-04-20 01:24 38.75739 -90.42282 41220 ft 508 kts 161°
2026-04-20 01:24 38.69330 -90.38460 41220 ft 509 kts 162°
2026-04-20 01:25 38.62897 -90.34681 41217 ft 508 kts 162°
2026-04-20 01:25 38.56459 -90.30942 41207 ft 508 kts 162°
2026-04-20 01:26 38.50006 -90.27211 41207 ft 508 kts 162°
2026-04-20 01:26 38.43555 -90.23487 41207 ft 508 kts 162°
2026-04-20 01:27 38.37154 -90.19796 41213 ft 508 kts 162°
2026-04-20 01:27 38.30705 -90.16085 41213 ft 508 kts 162°
2026-04-20 01:28 38.24256 -90.12380 41218 ft 508 kts 162°
2026-04-20 01:28 38.17806 -90.08682 41226 ft 508 kts 162°
2026-04-20 01:29 38.11364 -90.04996 41235 ft 508 kts 162°
2026-04-20 01:29 38.04924 -90.01319 41226 ft 508 kts 162°
2026-04-20 01:30 37.98481 -89.97647 41222 ft 508 kts 163°
2026-04-20 01:30 37.92035 -89.93980 41224 ft 508 kts 163°
2026-04-20 01:31 37.85591 -89.90321 41225 ft 507 kts 163°
2026-04-20 01:31 37.79142 -89.86666 41230 ft 507 kts 163°
2026-04-20 01:32 37.72735 -89.83043 41223 ft 507 kts 163°
2026-04-20 01:32 37.66283 -89.79401 41230 ft 507 kts 163°
2026-04-20 01:33 37.59832 -89.75766 41226 ft 507 kts 163°
2026-04-20 01:33 37.53382 -89.72139 41228 ft 507 kts 163°
2026-04-20 01:34 37.46931 -89.68518 41229 ft 507 kts 163°
2026-04-20 01:34 37.40489 -89.64909 41226 ft 507 kts 163°
2026-04-20 01:35 37.34041 -89.61303 41229 ft 507 kts 163°
2026-04-20 01:35 37.27638 -89.57731 41230 ft 507 kts 163°
2026-04-20 01:36 37.21191 -89.54139 41227 ft 507 kts 163°
2026-04-20 01:36 37.14746 -89.50555 41229 ft 507 kts 163°
2026-04-20 01:37 37.08292 -89.46974 41227 ft 506 kts 163°
2026-04-20 01:37 37.01852 -89.43406 41249 ft 506 kts 163°
2026-04-20 01:38 36.95408 -89.39843 41249 ft 506 kts 163°
2026-04-20 01:38 36.89008 -89.36310 41249 ft 506 kts 163°
2026-04-20 01:39 36.82570 -89.32764 41250 ft 506 kts 163°
2026-04-20 01:39 36.76125 -89.29220 41244 ft 505 kts 163°
2026-04-20 01:40 36.69688 -89.25687 41249 ft 505 kts 163°
2026-04-20 01:40 36.63252 -89.22161 41249 ft 505 kts 163°
2026-04-20 01:41 36.56821 -89.18644 41249 ft 505 kts 164°
2026-04-20 01:41 36.50384 -89.15130 41253 ft 505 kts 164°
2026-04-20 01:42 36.43951 -89.11625 41258 ft 505 kts 164°
2026-04-20 01:42 36.37515 -89.08123 41249 ft 505 kts 164°
2026-04-20 01:43 36.31121 -89.04651 41257 ft 505 kts 164°
2026-04-20 01:43 36.24943 -89.00310 41265 ft 515 kts 152°
2026-04-20 01:44 36.19039 -88.95211 41253 ft 517 kts 151°
2026-04-20 01:44 36.13154 -88.90111 41267 ft 516 kts 152°
2026-04-20 01:45 36.07241 -88.85085 41277 ft 515 kts 152°
2026-04-20 01:45 36.01349 -88.80127 41281 ft 515 kts 152°
2026-04-20 01:46 35.95414 -88.75146 41280 ft 515 kts 152°
2026-04-20 01:46 35.89490 -88.70176 41282 ft 515 kts 152°
2026-04-20 01:47 35.83570 -88.65216 41285 ft 514 kts 152°
2026-04-20 01:47 35.77651 -88.60265 41290 ft 514 kts 153°
2026-04-20 01:48 35.71739 -88.55330 41295 ft 513 kts 153°
2026-04-20 01:48 35.65827 -88.50405 41296 ft 513 kts 153°
2026-04-20 01:49 35.59946 -88.45512 41299 ft 512 kts 153°
2026-04-20 01:49 35.54034 -88.40607 41302 ft 512 kts 153°
2026-04-20 01:50 35.48120 -88.35719 41293 ft 512 kts 153°
2026-04-20 01:50 35.42241 -88.30869 41295 ft 512 kts 153°
2026-04-20 01:51 35.36325 -88.25995 41286 ft 511 kts 153°
2026-04-20 01:51 35.30411 -88.21131 41277 ft 511 kts 153°
2026-04-20 01:52 35.24541 -88.16311 41280 ft 511 kts 153°
2026-04-20 01:52 35.18630 -88.11466 41283 ft 511 kts 153°
2026-04-20 01:53 35.12718 -88.06629 41284 ft 511 kts 153°
2026-04-20 01:53 35.06792 -88.01790 41286 ft 511 kts 154°
2026-04-20 01:54 35.00874 -87.96965 41291 ft 511 kts 154°
2026-04-20 01:54 34.94996 -87.92181 41292 ft 511 kts 154°
2026-04-20 01:55 34.89074 -87.87370 41290 ft 511 kts 154°
2026-04-20 01:55 34.83156 -87.82570 41287 ft 511 kts 154°
2026-04-20 01:56 34.77232 -87.77774 41291 ft 510 kts 154°
2026-04-20 01:56 34.71320 -87.72995 41291 ft 510 kts 154°
2026-04-20 01:57 34.66407 -87.69030 41285 ft 510 kts 154°
2026-04-20 01:57 34.60493 -87.64267 41289 ft 510 kts 154°
2026-04-20 01:58 34.54576 -87.59511 41287 ft 510 kts 154°
2026-04-20 01:58 34.48666 -87.54767 41283 ft 509 kts 154°
2026-04-20 01:59 34.42787 -87.50055 41281 ft 509 kts 154°
2026-04-20 01:59 34.36877 -87.45326 41282 ft 509 kts 154°
2026-04-20 02:00 34.30959 -87.40599 41273 ft 509 kts 154°
2026-04-20 02:00 34.25045 -87.35883 41277 ft 509 kts 154°
2026-04-20 02:01 34.19127 -87.31172 41287 ft 509 kts 154°
2026-04-20 02:01 34.13210 -87.26469 41305 ft 509 kts 154°
2026-04-20 02:02 34.07290 -87.21772 41303 ft 510 kts 155°
2026-04-20 02:02 34.01366 -87.17079 41311 ft 509 kts 155°
2026-04-20 02:03 33.95477 -87.12423 41305 ft 509 kts 155°
2026-04-20 02:03 33.89555 -87.07747 41296 ft 509 kts 155°
2026-04-20 02:04 33.83636 -87.03079 41295 ft 508 kts 155°
2026-04-20 02:04 33.77715 -86.98418 41296 ft 508 kts 155°
2026-04-20 02:05 33.71794 -86.93763 41305 ft 508 kts 155°
2026-04-20 02:05 33.65773 -86.89446 41302 ft 496 kts 165°
2026-04-20 02:06 33.59359 -86.86720 41320 ft 486 kts 172°
2026-04-20 02:06 33.52952 -86.84227 41320 ft 486 kts 172°
2026-04-20 02:07 33.46512 -86.81674 41320 ft 488 kts 171°
2026-04-20 02:07 33.40072 -86.79076 41297 ft 488 kts 171°
2026-04-20 02:08 33.33638 -86.76468 41305 ft 488 kts 171°
2026-04-20 02:08 33.27200 -86.73863 41291 ft 489 kts 171°
2026-04-20 02:09 33.20752 -86.71261 41286 ft 489 kts 171°
2026-04-20 02:09 33.14334 -86.68676 41292 ft 489 kts 171°
2026-04-20 02:10 33.07873 -86.66078 41283 ft 490 kts 171°
2026-04-20 02:10 33.01414 -86.63485 41280 ft 490 kts 171°
2026-04-20 02:11 32.94954 -86.60895 41276 ft 490 kts 171°
2026-04-20 02:11 32.88489 -86.58307 41268 ft 490 kts 172°
2026-04-20 02:12 32.82032 -86.55727 41268 ft 490 kts 172°
2026-04-20 02:12 32.75558 -86.53144 41268 ft 490 kts 172°
2026-04-20 02:13 32.69101 -86.50571 41263 ft 490 kts 172°
2026-04-20 02:13 32.62640 -86.48000 41258 ft 489 kts 172°
2026-04-20 02:14 32.56185 -86.45436 41261 ft 489 kts 172°
2026-04-20 02:14 32.49779 -86.42896 41259 ft 488 kts 172°
2026-04-20 02:15 32.43333 -86.40343 41257 ft 488 kts 172°
2026-04-20 02:15 32.36885 -86.37794 41264 ft 488 kts 172°
2026-04-20 02:16 32.30438 -86.35247 41289 ft 488 kts 172°
2026-04-20 02:16 32.24075 -86.32271 41283 ft 505 kts 159°
2026-04-20 02:17 32.21134 -86.29924 41288 ft 516 kts 149°
2026-04-20 02:17 32.18505 -86.26989 41273 ft 525 kts 137°
2026-04-20 02:17 32.14041 -86.20212 41277 ft 526 kts 134°
2026-04-20 02:18 32.08999 -86.14096 41269 ft 508 kts 151°
2026-04-20 02:18 32.03383 -86.09150 41267 ft 507 kts 152°
2026-04-20 02:19 31.97717 -86.04171 41273 ft 509 kts 152°
2026-04-20 02:19 31.92078 -85.99108 41283 ft 511 kts 151°
2026-04-20 02:20 31.86434 -85.94014 41285 ft 512 kts 151°
2026-04-20 02:20 31.80770 -85.88916 41276 ft 513 kts 151°
2026-04-20 02:21 31.72390 -85.80980 41269 ft 520 kts 147°
2026-04-20 02:22 31.66997 -85.75297 41263 ft 521 kts 146°
2026-04-20 02:22 31.61633 -85.69651 41248 ft 520 kts 146°
2026-04-20 02:23 31.56177 -85.64002 41243 ft 519 kts 147°
2026-04-20 02:23 31.50776 -85.58457 41238 ft 519 kts 147°
2026-04-20 02:24 31.45344 -85.52892 41241 ft 518 kts 147°
2026-04-20 02:24 31.39912 -85.47331 41278 ft 518 kts 147°
2026-04-20 02:25 31.34493 -85.41790 41280 ft 517 kts 147°
2026-04-20 02:25 31.29105 -85.36289 41282 ft 517 kts 147°
2026-04-20 02:26 31.23685 -85.30763 41274 ft 517 kts 147°
2026-04-20 02:26 31.18265 -85.25248 41263 ft 517 kts 147°
2026-04-20 02:27 31.12839 -85.19734 41245 ft 517 kts 147°
2026-04-20 02:27 31.07415 -85.14231 41237 ft 517 kts 147°
2026-04-20 02:28 31.01984 -85.08729 41239 ft 517 kts 147°
2026-04-20 02:28 30.96553 -85.03236 41239 ft 517 kts 147°
2026-04-20 02:29 30.91119 -84.97748 41236 ft 517 kts 147°
2026-04-20 02:29 30.85672 -84.92256 41232 ft 517 kts 147°
2026-04-20 02:30 30.80230 -84.86776 41234 ft 518 kts 147°
2026-04-20 02:30 30.74815 -84.81334 41231 ft 518 kts 147°
2026-04-20 02:31 30.69355 -84.75866 41224 ft 518 kts 147°
2026-04-20 02:31 30.63885 -84.70396 41209 ft 518 kts 147°
2026-04-20 02:32 30.58413 -84.64928 41207 ft 518 kts 148°
2026-04-20 02:32 30.52935 -84.59463 41213 ft 519 kts 148°
2026-04-20 02:33 30.47465 -84.54013 41210 ft 518 kts 148°
2026-04-20 02:33 30.42025 -84.48603 41213 ft 518 kts 148°
2026-04-20 02:34 30.36554 -84.43168 41212 ft 518 kts 148°
2026-04-20 02:34 30.31083 -84.37742 41214 ft 517 kts 148°
2026-04-20 02:35 30.25615 -84.32321 41209 ft 517 kts 148°
2026-04-20 02:35 30.20153 -84.26909 41205 ft 517 kts 148°
2026-04-20 02:36 30.14698 -84.21512 41203 ft 516 kts 148°
2026-04-20 02:36 30.09242 -84.16123 41198 ft 516 kts 148°
2026-04-20 02:37 30.03821 -84.10776 41201 ft 515 kts 148°
2026-04-20 02:37 29.98366 -84.05405 41202 ft 515 kts 148°
2026-04-20 02:38 29.92904 -84.00033 41204 ft 515 kts 148°
2026-04-20 02:38 29.87445 -83.94672 41201 ft 515 kts 148°
2026-04-20 02:39 29.81970 -83.89349 41197 ft 512 kts 152°
2026-04-20 02:39 29.79033 -83.87146 41214 ft 500 kts 160°
2026-04-20 02:39 29.76002 -83.85190 41193 ft 498 kts 162°
2026-04-20 02:40 29.69925 -83.81482 41187 ft 498 kts 162°
2026-04-20 02:40 29.63826 -83.77683 41187 ft 500 kts 161°
2026-04-20 02:41 29.57741 -83.73788 41154 ft 501 kts 161°
2026-04-20 02:41 29.54674 -83.71816 40580 ft 508 kts 161°
2026-04-20 02:41 29.51592 -83.69831 39973 ft 506 kts 161°
2026-04-20 02:41 29.48527 -83.67856 39335 ft 505 kts 161°
2026-04-20 02:42 29.45454 -83.65881 38593 ft 506 kts 161°
2026-04-20 02:42 29.42382 -83.63912 37821 ft 506 kts 161°
2026-04-20 02:42 29.39313 -83.61946 37111 ft 504 kts 161°
2026-04-20 02:42 29.36248 -83.59983 36397 ft 502 kts 161°
2026-04-20 02:43 29.33246 -83.58064 35664 ft 501 kts 161°
2026-04-20 02:43 29.30196 -83.56117 34859 ft 502 kts 161°
2026-04-20 02:43 29.27142 -83.54168 33956 ft 503 kts 160°
2026-04-20 02:43 29.24078 -83.52215 32961 ft 505 kts 160°
2026-04-20 02:44 29.21009 -83.50258 31975 ft 505 kts 159°
2026-04-20 02:44 29.17932 -83.48299 31123 ft 504 kts 159°
2026-04-20 02:44 29.14894 -83.46364 30436 ft 497 kts 159°
2026-04-20 02:44 29.11887 -83.44450 29632 ft 492 kts 159°
2026-04-20 02:45 29.08907 -83.42557 28859 ft 485 kts 158°
2026-04-20 02:45 29.05978 -83.40698 28141 ft 478 kts 158°
2026-04-20 02:45 29.03118 -83.38884 27431 ft 472 kts 158°
2026-04-20 02:45 29.00269 -83.37078 26731 ft 466 kts 158°
2026-04-20 02:46 28.97447 -83.35287 26041 ft 461 kts 158°
2026-04-20 02:46 28.94657 -83.33517 25355 ft 456 kts 158°
2026-04-20 02:46 28.91891 -83.31765 24640 ft 453 kts 157°
2026-04-20 02:46 28.89148 -83.30029 23947 ft 449 kts 157°
2026-04-20 02:47 28.86423 -83.28305 23161 ft 446 kts 157°
2026-04-20 02:47 28.83723 -83.26597 22424 ft 441 kts 156°
2026-04-20 02:47 28.81059 -83.24912 21726 ft 435 kts 156°
2026-04-20 02:47 28.78428 -83.23249 21050 ft 429 kts 156°
2026-04-20 02:48 28.76707 -83.22162 20608 ft 426 kts 156°
2026-04-20 02:48 28.74130 -83.20536 19947 ft 420 kts 156°
2026-04-20 02:48 28.70768 -83.18416 19080 ft 414 kts 156°
2026-04-20 02:48 28.68256 -83.16833 18411 ft 410 kts 156°
2026-04-20 02:49 28.65773 -83.15270 17679 ft 406 kts 156°
2026-04-20 02:49 28.63316 -83.13723 17010 ft 401 kts 155°
2026-04-20 02:49 28.61677 -83.12691 16551 ft 397 kts 155°
2026-04-20 02:49 28.59262 -83.11173 15840 ft 394 kts 155°
2026-04-20 02:50 28.56914 -83.09595 15190 ft 393 kts 145°
2026-04-20 02:50 28.55042 -83.07321 14567 ft 394 kts 128°
2026-04-20 02:50 28.53487 -83.04770 13964 ft 390 kts 125°
2026-04-20 02:50 28.52018 -83.02242 13335 ft 385 kts 124°
2026-04-20 02:51 28.50565 -82.99721 12847 ft 377 kts 124°
2026-04-20 02:51 28.49149 -82.97257 12510 ft 367 kts 124°
2026-04-20 02:51 28.47772 -82.94854 12257 ft 360 kts 124°
2026-04-20 02:51 28.46392 -82.92446 12010 ft 365 kts 124°
2026-04-20 02:52 28.45010 -82.90032 11745 ft 362 kts 124°
2026-04-20 02:52 28.43639 -82.87635 11334 ft 358 kts 124°
2026-04-20 02:52 28.42286 -82.85272 11067 ft 351 kts 124°
2026-04-20 02:52 28.40960 -82.82955 11030 ft 353 kts 124°
2026-04-20 02:53 28.39631 -82.80638 11020 ft 351 kts 124°
2026-04-20 02:53 28.38309 -82.78331 11001 ft 334 kts 124°
2026-04-20 02:53 28.37078 -82.76181 10997 ft 316 kts 124°
2026-04-20 02:53 28.35930 -82.74170 10994 ft 301 kts 124°
2026-04-20 02:54 28.34902 -82.72123 11011 ft 302 kts 116°
2026-04-20 02:54 28.34015 -82.69906 11020 ft 311 kts 114°
2026-04-20 02:54 28.33141 -82.67641 11019 ft 313 kts 114°
2026-04-20 02:54 28.32278 -82.65391 10871 ft 309 kts 114°
2026-04-20 02:55 28.31429 -82.63172 10537 ft 306 kts 114°
2026-04-20 02:55 28.30607 -82.60954 10285 ft 304 kts 111°
2026-04-20 02:55 28.29917 -82.58688 10057 ft 304 kts 108°
2026-04-20 02:55 28.29276 -82.56397 9813 ft 305 kts 107°
2026-04-20 02:56 28.28642 -82.54104 9561 ft 304 kts 108°
2026-04-20 02:56 28.28004 -82.51824 9300 ft 302 kts 108°
2026-04-20 02:56 28.27363 -82.49559 9044 ft 301 kts 108°
2026-04-20 02:56 28.26720 -82.47311 8796 ft 299 kts 108°
2026-04-20 02:57 28.26075 -82.45076 8549 ft 297 kts 108°
2026-04-20 02:57 28.25433 -82.42858 8301 ft 295 kts 108°
2026-04-20 02:57 28.24800 -82.40682 8062 ft 293 kts 108°
2026-04-20 02:57 28.24152 -82.38461 7820 ft 291 kts 108°
2026-04-20 02:58 28.23518 -82.36291 7583 ft 289 kts 108°
2026-04-20 02:58 28.22884 -82.34125 7341 ft 287 kts 108°
2026-04-20 02:58 28.22256 -82.31981 7102 ft 285 kts 108°
2026-04-20 02:58 28.21650 -82.29913 6872 ft 283 kts 108°
2026-04-20 02:59 28.21016 -82.27753 6632 ft 280 kts 108°
2026-04-20 02:59 28.20404 -82.25666 6387 ft 277 kts 109°
2026-04-20 02:59 28.19805 -82.23628 6155 ft 275 kts 109°
2026-04-20 02:59 28.19202 -82.21577 5896 ft 273 kts 109°
2026-04-20 03:00 28.18611 -82.19568 5663 ft 265 kts 109°
2026-04-20 03:00 28.18037 -82.17617 5502 ft 259 kts 109°
2026-04-20 03:00 28.17468 -82.15686 5343 ft 257 kts 109°
2026-04-20 03:00 28.16894 -82.13738 5219 ft 258 kts 109°
2026-04-20 03:01 28.16332 -82.11832 5083 ft 258 kts 109°
2026-04-20 03:01 28.15764 -82.09907 4943 ft 258 kts 109°
2026-04-20 03:01 28.15186 -82.07950 4795 ft 258 kts 109°
2026-04-20 03:01 28.14623 -82.06046 4656 ft 258 kts 109°
2026-04-20 03:02 28.14054 -82.04122 4511 ft 257 kts 109°
2026-04-20 03:02 28.13484 -82.02196 4359 ft 257 kts 109°
2026-04-20 03:02 28.12918 -82.00283 4220 ft 254 kts 109°
2026-04-20 03:02 28.12369 -81.98430 4095 ft 241 kts 109°
2026-04-20 03:03 28.11855 -81.96693 3963 ft 225 kts 108°
2026-04-20 03:03 28.11363 -81.95035 3837 ft 220 kts 108°
2026-04-20 03:03 28.10878 -81.93398 3726 ft 219 kts 108°
2026-04-20 03:03 28.10393 -81.91759 3605 ft 220 kts 108°
2026-04-20 03:04 28.09904 -81.90112 3499 ft 221 kts 108°
2026-04-20 03:04 28.09415 -81.88467 3377 ft 216 kts 107°
2026-04-20 03:04 28.08950 -81.86905 3254 ft 202 kts 107°
2026-04-20 03:04 28.08514 -81.85444 3148 ft 191 kts 107°
2026-04-20 03:05 28.08019 -81.84048 3054 ft 194 kts 122°
2026-04-20 03:05 28.06929 -81.83200 3020 ft 195 kts 167°
2026-04-20 03:05 28.05573 -81.83174 3032 ft 197 kts 181°
2026-04-20 03:05 28.04212 -81.83234 3028 ft 199 kts 181°
2026-04-20 03:06 28.02835 -81.83294 3014 ft 198 kts 181°
2026-04-20 03:06 28.01471 -81.83451 3005 ft 197 kts 198°
2026-04-20 03:06 28.00394 -81.84360 2924 ft 199 kts 237°
2026-04-20 03:06 28.00000 -81.85839 2711 ft 196 kts 265°
2026-04-20 03:07 27.99893 -81.87372 2472 ft 194 kts 269°
2026-04-20 03:07 27.99808 -81.88884 2240 ft 189 kts 270°
2026-04-20 03:07 27.99719 -81.90304 2049 ft 170 kts 269°
2026-04-20 03:07 27.99531 -81.91529 1871 ft 149 kts 264°
2026-04-20 03:08 27.99311 -81.92625 1645 ft 138 kts 264°
2026-04-20 03:08 27.99104 -81.93661 1428 ft 133 kts 264°
2026-04-20 03:08 27.98948 -81.94689 1224 ft 132 kts 270°
2026-04-20 03:08 27.98889 -81.95717 1052 ft 130 kts 276°
2026-04-20 03:09 27.98912 -81.96744 889 ft 130 kts 276°
2026-04-20 03:09 27.98931 -81.97737 721 ft 127 kts 274°
2026-04-20 03:09 27.98937 -81.98741 534 ft 127 kts 272°
2026-04-20 03:09 27.98926 -81.99728 346 ft 124 kts 272°
2026-04-20 03:10 27.98927 -82.00720 195 ft 128 kts 271°
2026-04-20 03:10 27.98928 -82.01683 148 ft 109 kts 265°
2026-04-20 03:10 27.98929 -82.02536 147 ft 104 kts 267°
2026-04-20 03:10 27.98918 -82.02913 148 ft 95 kts 269°
2026-04-20 03:11 27.98917 -82.02986 147 ft 94 kts 269°
2026-04-20 03:11 27.98914 -82.03287 148 ft 22 kts 270°
2026-04-20 03:11 27.98969 -82.03360 148 ft 11 kts 359°
2026-04-20 03:11 27.99008 -82.03353 148 ft 0 kts 18°
2026-04-20 03:12 27.99011 -82.03352 147 ft 3 kts 20°
2026-04-20 03:12 27.99036 -82.03268 147 ft 12 kts 82°
2026-04-20 03:12 27.99073 -82.03241 147 ft 11 kts
2026-04-20 03:13 27.99130 -82.03276 147 ft 12 kts 288°
2026-04-20 03:13 27.99149 -82.03327 147 ft 8 kts 341°
2026-04-20 03:13 27.99178 -82.03328 147 ft 0 kts 358°